500P/PanSTARRS (2018)

Japanese version
Home page
Updated on June 14, 2025

---------------------------------------------------------------------

* Profile

Designation 500P/2019 A8
Discovery Date January 11, 2019
Magnitude 21.5 mag
Discoverer Pan-STARRS 1 telescope (Haleakala)

* Orbital Elements

                    Epoch = 2018 Aug. 30.0 TT
     T = 2018 Aug. 30.74303 TT        Peri. =  20.40194
     e = 0.4274762                    Node  = 127.89504 2000.0
     q = 1.8729519 AU                 Incl. =   2.96678
       a =  3.2713956 AU   n = 0.16657295   P =   5.92 years

* Magnitudes Graph

        m1 = 15.5 + 5 log d + 10.0 log r

---------------------------------------------------------------------

The orbital elements are printed on CBET 5516.
The magnitudes graphs are made with Comet for Windows.

---------------------------------------------------------------------

Copyright(C) Seiichi Yoshida (comet@aerith.net). All rights reserved.